Home   Weather   Clarksville   Past weeks

Flag for USA Past Weather in Clarksville, Tennessee, USA — Yesterday and Last 2 Weeks

Now
64 °F

Mostly cloudy.


Feels Like: 64 °F
Forecast: 56 / 65 °F
Wind: No wind

Location: Outlaw Field

Current Time: May 24, 2017 at 3:00:46 am

Latest Report: May 24, 2017 at 1:52 am


Visibility: 10 mi

Pressure: 29.57 "Hg

Humidity: 84%

Dew Point: 59 °F

Location of ClarksvilleLocation

Past Weather in Clarksville — Graph

°F

Clarksville Temperature Yesterday

Maximum temperature yesterday: 77 °F (at 2:52 pm)
Minimum temperature yesterday: 61 °F (at 3:52 am)
Average temperature yesterday: 68 °F

High & Low Weather Summary for the Past Weeks

 TemperatureHumidityPressure
High86 °F (May 17, 3:52 pm)97% (May 15, 3:52 am)30.16 "Hg (May 15, 3:52 am)
Low51 °F (May 14, 5:37 am)33% (May 14, 3:52 pm)29.57 "Hg (May 24, 1:52 am)
Average70 °F70%29.93 "Hg
* Reported May 9 1:52 am — May 24 1:52 am, Clarksville. Weather by CustomWeather, © 2017

Note: Actual official high and low records may vary slightly from our data, if they occured in-between our weather recording intervals... More about our weather records

Advertising

Clarksville Weather History for the Previous 24 Hours

Scroll right to see more
 ConditionsComfort  
Time TempWeatherWind HumidityBarometerVisibility
1:52 am
Wed, May 24
64 °FMostly cloudy.No wind84%29.57 "Hg10 mi
12:52 am64 °FMostly cloudy.No wind81%29.60 "Hg10 mi
11:52 pm
Tue, May 23
65 °FMostly cloudy.No wind76%29.62 "Hg10 mi
10:52 pm65 °FOvercast.No wind70%29.64 "Hg10 mi
9:52 pm67 °FPassing clouds.No wind61%29.64 "Hg10 mi
8:52 pm68 °FPassing clouds.3 mph57%29.64 "Hg10 mi
7:52 pm68 °FClear.6 mph57%29.64 "Hg10 mi
6:52 pm73 °FSunny.7 mph48%29.63 "Hg10 mi
5:52 pm75 °FPassing clouds.7 mph47%29.65 "Hg10 mi
4:52 pm75 °FScattered clouds.9 mph45%29.66 "Hg10 mi
3:52 pm75 °FSunny.9 mph48%29.67 "Hg10 mi
2:52 pm77 °FPartly sunny.10 mph45%29.68 "Hg10 mi
1:52 pm75 °FSunny.7 mph45%29.69 "Hg10 mi
12:52 pm74 °FSunny.5 mph48%29.72 "Hg10 mi
11:52 am73 °FSunny.5 mph48%29.73 "Hg10 mi
11:34 am74 °FSunny.8 mph46%29.75 "Hg10 mi
10:52 am74 °FSunny.No wind50%29.75 "Hg10 mi
9:52 am69 °FPartly sunny.3 mph61%29.78 "Hg10 mi
8:52 am66 °FPassing clouds.No wind68%29.78 "Hg10 mi
7:52 am64 °FPassing clouds.3 mph75%29.79 "Hg10 mi
6:52 am62 °FOvercast.5 mph78%29.80 "Hg10 mi
5:52 am61 °FOvercast.3 mph81%29.81 "Hg10 mi
4:52 am61 °FOvercast.3 mph81%29.83 "Hg10 mi
3:52 am61 °FOvercast.5 mph78%29.83 "Hg10 mi
Weather by CustomWeather, © 2017

See weather overviewHow to use our weather pages